Temp
74 74 73 75 75 75 75 75 75 75 75 75 75 75 75 75 75 75 76 76 75 76 76 75 75 76 76 75 74 74 75 75 75 75 75 75 75 75 75 75 74 74 74 73 73 73 73 73 73 73 74 74 74 73 76 81 81 79 77 75 74 74
72 71 72 73 75 75 74 75 75 75 75 75 75 75 74 75 76 74 76 75 75 75 75 75 75 76 74 75 75 74 75 75 75 75 74 75 75 75 75 75 74 74 74 73 72 73 73 73 73 73 74 73 73 75 79 80 80 79 76 75 74 74
72 72 72 72 74 73 73 74 75 76 75 76 76 75 76 76 75 75 75 74 73 73 74 73 74 75 75 75 75 75 75 75 75 75 74 74 74 74 74 74 74 74 73 73 73 75 75 74 73 73 73 73 74 77 80 80 79 77 76 74 74 75
72 72 71 71 72 73 72 73 75 76 76 76 76 76 75 75 75 74 74 73 72 73 74 73 76 77 75 74 73 74 75 75 75 75 74 74 74 74 74 74 74 74 72 74 74 77 79 77 75 73 74 75 76 80 79 78 78 77 75 76 75 74
73 72 71 71 71 71 72 72 75 76 77 76 75 75 75 74 75 75 74 73 73 74 74 73 73 72 72 73 73 73 74 74 74 73 73 73 73 76 73 76 74 72 74 76 78 79 79 77 76 76 76 76 76 79 79 78 77 76 75 74 73 74
73 72 72 71 71 72 72 71 72 75 76 75 74 73 74 74 74 73 73 73 74 73 72 73 73 71 72 72 72 73 74 74 74 74 74 74 74 74 73 75 75 75 75 77 78 79 79 77 77 76 76 77 76 79 76 77 77 74 73 72 73 74
73 72 72 71 72 73 71 70 73 72 70 71 72 73 74 74 74 73 73 73 71 71 71 71 72 72 71 72 73 73 74 75 75 75 74 75 74 74 74 75 75 75 76 78 81 80 81 80 78 79 77 78 77 73 70 72 76 75 73 73 73 74
72 72 71 71 72 73 72 73 74 72 71 71 71 71 73 74 74 73 73 72 71 70 70 70 71 72 71 73 73 75 76 76 76 76 76 75 75 74 74 74 75 76 78 80 81 80 80 82 79 79 79 77 70 69 68 69 74 75 74 73 73 74
73 72 72 71 73 74 74 73 73 71 69 72 68 70 73 73 72 72 71 71 70 69 69 71 71 73 73 72 74 75 74 75 76 76 76 75 77 75 74 75 75 77 76 76 77 79 80 79 78 78 77 70 70 70 70 69 70 71 71 72 73 73
73 72 72 72 74 73 72 72 73 71 70 71 69 71 71 70 70 69 69 70 70 70 69 69 71 72 72 70 72 74 74 75 75 77 76 76 76 75 74 73 74 74 76 76 77 78 77 77 79 80 71 69 69 70 69 69 70 69 69 71 71 72
72 72 72 73 73 73 73 72 72 71 71 70 71 71 70 70 69 69 69 70 69 70 70 70 70 70 68 70 71 74 75 76 75 76 75 76 76 75 75 74 72 72 73 76 75 76 76 76 77 81 70 71 70 70 69 69 69 70 69 69 71 71
70 72 73 73 74 73 72 72 71 71 70 70 71 71 70 69 68 69 70 70 69 69 69 71 69 69 68 69 72 74 75 74 74 75 73 75 75 74 75 75 75 75 75 74 73 73 74 75 76 71 71 72 71 70 68 68 69 69 69 69 70 71
70 71 71 72 72 72 72 71 70 69 69 71 72 72 70 70 70 70 70 70 71 71 70 70 70 70 69 72 74 74 74 74 74 74 74 75 74 75 75 73 74 76 75 75 75 75 78 76 74 69 70 70 69 68 68 68 68 68 69 70 70 70
70 69 70 70 70 71 71 69 70 69 70 71 72 72 71 72 71 71 72 72 73 73 70 69 69 70 74 76 74 73 74 74 75 75 74 74 73 74 73 74 73 74 75 74 74 74 74 75 72 70 68 68 67 67 68 68 68 69 70 70 70 70
69 68 69 70 70 72 71 68 70 70 71 72 73 72 72 72 70 72 72 72 73 73 70 68 69 70 70 70 70 71 73 75 75 75 74 74 74 73 74 73 73 74 74 75 74 74 74 72 67 67 67 67 67 68 68 69 69 69 70 70 70 69
69 68 69 70 71 73 71 69 69 69 70 72 71 73 72 71 72 72 72 72 73 71 73 70 71 71 71 69 69 69 71 74 75 75 74 74 74 73 72 72 73 73 73 74 75 73 73 69 67 65 66 67 67 68 68 67 68 68 69 69 69 69
70 71 71 72 73 74 71 69 69 68 71 71 71 71 72 71 72 72 72 71 72 72 70 70 71 73 71 70 68 67 67 69 73 72 72 72 72 73 71 72 71 73 74 71 74 71 69 66 65 66 66 68 68 68 66 65 66 67 69 69 69 67
73 72 72 72 73 72 73 69 68 69 71 70 71 71 73 72 72 72 70 72 73 71 70 70 72 70 70 69 69 68 67 69 72 72 72 72 70 72 72 71 69 71 72 71 68 68 67 68 67 65 66 65 66 66 66 65 66 67 65 68 68 67
72 72 72 72 72 72 71 68 68 69 70 70 69 70 71 71 73 73 72 74 72 72 71 71 72 72 70 70 69 69 70 71 70 70 69 70 70 70 70 70 69 69 70 70 68 67 67 66 66 66 66 65 66 67 65 65 66 68 66 67 68 67
71 72 71 71 72 71 70 66 66 67 67 68 68 70 71 70 71 72 72 73 71 70 71 72 73 72 71 69 68 68 69 70 69 67 67 67 68 68 69 69 68 69 68 67 68 69 68 66 65 65 65 65 67 67 65 64 66 67 67 67 67 67
71 71 70 70 71 71 70 70 67 66 66 67 68 68 69 70 71 70 73 74 71 70 71 71 73 72 70 70 68 68 68 70 70 68 66 67 68 68 70 68 67 67 68 67 67 70 69 68 64 63 65 66 66 67 66 68 67 66 67 66 66 66
69 68 70 70 71 72 72 72 71 70 69 68 67 67 69 71 70 72 72 72 73 72 72 72 72 71 70 69 68 68 68 69 69 68 68 67 68 68 70 69 68 68 69 69 67 70 67 68 63 62 62 62 63 65 65 67 66 65 65 67 67 67
67 68 67 67 70 72 74 72 70 67 67 67 69 69 71 72 72 71 71 72 73 71 73 72 72 71 70 69 69 68 68 68 68 68 68 66 66 67 68 69 69 69 68 71 68 69 68 68 63 64 64 63 60 60 62 64 66 66 65 67 67 66
67 68 67 68 70 73 68 67 69 71 68 68 68 69 71 72 71 71 71 71 71 73 73 72 73 72 72 70 70 70 70 69 67 68 69 68 65 68 67 69 70 70 70 67 68 67 70 68 68 64 59 59 59 60 57 59 61 62 65 66 66 66
66 66 66 67 70 68 66 67 71 72 70 69 70 70 70 69 70 70 71 71 69 73 73 73 72 71 72 71 71 71 71 70 68 68 71 70 70 70 71 73 73 70 70 67 67 67 68 70 69 69 63 59 58 57 58 60 61 60 64 64 65 65
66 67 67 68 69 66 67 67 67 67 66 66 66 67 66 67 68 68 69 72 72 73 74 73 72 71 73 71 71 72 72 71 70 69 70 71 72 71 72 73 74 71 71 70 68 68 66 68 68 68 68 66 65 61 59 62 62 55 63 65 64 66
65 66 67 67 70 68 67 68 67 69 69 68 67 68 70 69 69 70 71 70 70 71 74 73 71 71 72 72 72 73 73 73 72 71 71 71 69 71 73 73 73 71 71 70 69 66 66 66 68 69 70 69 67 65 67 62 58 60 56 60 63 64
65 66 67 67 69 70 69 68 68 68 69 70 69 68 68 68 70 70 68 69 69 69 70 71 68 71 73 73 72 72 71 72 72 74 72 71 71 71 72 72 71 71 70 70 69 66 66 68 65 65 68 67 66 67 67 66 67 63 60 56 58 63
64 65 67 68 69 70 70 69 69 69 68 69 70 70 70 70 67 68 67 67 67 67 67 69 68 68 72 74 73 71 73 73 72 73 73 72 71 73 72 70 69 69 69 68 69 69 68 67 67 65 65 66 67 66 67 67 68 67 62 59 58 59
64 64 67 68 68 70 70 67 67 69 68 67 68 69 70 67 67 67 66 66 66 66 67 66 66 67 69 73 74 73 73 73 72 73 71 70 72 72 71 71 70 70 69 68 69 69 68 67 68 67 68 67 65 65 64 63 65 64 64 64 59 59
65 64 67 67 68 69 69 65 66 68 69 68 69 68 66 65 65 66 67 67 66 65 67 66 66 67 68 71 72 71 71 70 73 73 73 72 70 71 71 70 71 71 71 69 68 68 69 69 68 68 68 67 66 66 63 60 63 65 64 62 61 61
65 65 66 69 69 69 68 67 67 67 68 69 69 68 66 64 65 66 67 66 67 67 68 67 67 67 72 74 73 72 73 74 74 74 74 73 72 72 71 71 70 70 70 70 70 70 69 68 68 68 67 66 66 67 67 66 66 64 64 62 63 62
64 65 67 69 70 70 68 67 68 66 66 69 69 68 67 65 66 67 67 67 67 66 69 70 71 71 72 73 73 72 73 73 73 72 74 75 74 74 72 71 70 71 71 70 69 69 68 68 68 68 67 68 68 68 68 68 67 67 67 67 65 62
65 66 68 69 70 70 69 69 70 70 69 69 68 68 67 66 67 68 69 68 68 69 69 70 71 71 72 73 73 73 73 73 73 73 73 73 73 74 74 74 72 71 70 70 70 68 68 69 68 67 68 67 68 68 67 69 69 68 67 66 64 63
66 67 68 69 70 70 70 70 71 71 69 69 68 68 68 69 68 67 68 69 69 70 70 71 72 71 73 73 73 73 73 72 73 73 72 72 74 72 72 74 73 71 69 69 67 69 69 68 69 68 68 67 68 68 68 70 68 69 69 68 67 65
68 68 69 69 69 70 69 70 70 70 70 69 69 68 68 67 68 68 67 68 70 71 72 72 72 73 73 73 73 72 73 73 73 73 72 72 72 72 72 71 70 71 71 72 68 69 68 68 68 69 69 68 69 68 69 69 70 69 69 68 68 67
69 69 69 70 70 69 69 69 70 70 69 69 68 68 66 67 66 66 66 67 70 72 73 72 72 73 73 73 72 72 72 72 73 72 72 72 73 74 73 72 71 70 70 72 71 70 67 68 67 68 69 68 68 68 69 69 70 70 69 68 69 68
MSLP
1011.62 1011.50 1011.70 1012.10 1012.50 1012.90 1013.34 1013.74 1014.22 1014.58 1014.78 1014.94 1015.10 1015.22 1015.34 1015.70 1015.82 1015.90 1016.02 1016.06 1016.10 1016.14 1016.26 1016.38 1016.50 1016.58 1016.66 1016.78 1016.86 1016.94 1017.02 1017.10 1017.22 1017.30 1017.30 1017.30 1017.38 1017.46 1017.50 1017.58 1017.66 1017.70 1017.74 1017.78 1017.82 1017.90 1017.94 1017.90 1017.90 1017.90 1017.86 1017.78 1017.66 1017.50 1017.26 1017.14 1017.50 1018.06 1018.62 1019.06 1019.38 1019.58
1011.70 1011.62 1011.58 1011.74 1012.06 1012.54 1013.10 1013.54 1014.02 1014.46 1014.78 1015.02 1015.26 1015.34 1015.62 1015.70 1015.82 1016.02 1016.06 1016.14 1016.26 1016.34 1016.38 1016.50 1016.58 1016.62 1016.78 1016.86 1016.86 1016.98 1017.02 1017.10 1017.22 1017.34 1017.38 1017.38 1017.38 1017.46 1017.58 1017.62 1017.70 1017.78 1017.78 1017.82 1017.90 1017.94 1018.02 1018.02 1017.98 1017.98 1017.94 1017.86 1017.78 1017.50 1017.18 1017.30 1017.58 1018.22 1018.82 1019.30 1019.58 1019.74
1011.82 1011.90 1011.90 1011.90 1012.02 1012.46 1012.98 1013.38 1013.90 1014.38 1014.74 1015.06 1015.30 1015.46 1015.58 1015.70 1015.90 1016.02 1016.14 1016.34 1016.50 1016.50 1016.50 1016.62 1016.66 1016.66 1016.78 1016.82 1016.94 1017.02 1017.06 1017.14 1017.26 1017.34 1017.46 1017.46 1017.46 1017.50 1017.58 1017.66 1017.74 1017.82 1017.82 1017.90 1017.90 1017.78 1017.90 1017.98 1017.98 1018.02 1018.06 1017.98 1017.82 1017.62 1017.50 1017.62 1017.94 1018.38 1018.94 1019.38 1019.70 1019.86
1012.06 1012.26 1012.30 1012.22 1012.18 1012.42 1012.90 1013.26 1013.78 1014.18 1014.58 1014.94 1015.18 1015.42 1015.66 1015.82 1015.98 1016.22 1016.30 1016.42 1016.54 1016.58 1016.58 1016.66 1016.62 1016.70 1016.86 1016.98 1017.06 1017.10 1017.14 1017.18 1017.30 1017.38 1017.50 1017.54 1017.54 1017.54 1017.62 1017.70 1017.78 1017.86 1017.90 1017.90 1017.82 1017.62 1017.66 1017.86 1017.94 1018.02 1018.06 1017.98 1017.86 1017.70 1017.90 1017.98 1018.22 1018.74 1019.14 1019.50 1019.82 1019.98
1012.02 1012.26 1012.42 1012.42 1012.50 1012.62 1012.82 1013.06 1013.54 1013.98 1014.42 1014.86 1015.26 1015.54 1015.70 1015.94 1016.06 1016.22 1016.34 1016.42 1016.46 1016.54 1016.58 1016.66 1016.82 1016.98 1017.06 1017.14 1017.30 1017.34 1017.30 1017.26 1017.34 1017.50 1017.50 1017.54 1017.58 1017.58 1017.66 1017.66 1017.78 1017.86 1017.78 1017.70 1017.66 1017.42 1017.46 1017.74 1017.86 1018.02 1018.06 1018.06 1017.94 1017.90 1018.18 1018.38 1018.66 1019.10 1019.42 1019.70 1019.98 1020.10
1012.18 1012.22 1012.38 1012.62 1012.62 1012.50 1012.58 1013.02 1013.62 1013.94 1014.30 1014.82 1015.26 1015.50 1015.70 1015.94 1016.02 1016.22 1016.30 1016.38 1016.42 1016.62 1016.74 1016.74 1016.90 1017.14 1017.18 1017.26 1017.42 1017.50 1017.38 1017.26 1017.30 1017.42 1017.38 1017.42 1017.50 1017.58 1017.74 1017.62 1017.62 1017.62 1017.50 1017.30 1017.22 1017.14 1017.26 1017.58 1017.90 1018.02 1018.10 1018.06 1018.06 1018.26 1018.70 1018.78 1019.02 1019.46 1019.74 1019.98 1020.14 1020.26
1012.22 1012.38 1012.62 1012.86 1012.82 1012.46 1012.66 1013.22 1013.66 1013.86 1014.18 1014.62 1014.98 1015.42 1015.70 1015.86 1015.98 1016.18 1016.30 1016.38 1016.62 1016.74 1016.98 1016.98 1017.06 1017.14 1017.26 1017.30 1017.42 1017.42 1017.34 1017.18 1017.26 1017.26 1017.22 1017.30 1017.38 1017.46 1017.62 1017.62 1017.66 1017.66 1017.42 1017.30 1017.10 1017.10 1017.26 1017.42 1017.70 1017.98 1018.06 1018.18 1018.66 1019.34 1019.50 1019.62 1019.38 1019.58 1019.94 1020.14 1020.30 1020.38
1012.10 1012.30 1012.74 1012.86 1012.86 1012.74 1012.98 1013.38 1013.70 1013.98 1014.58 1014.78 1014.94 1015.42 1015.54 1015.66 1015.82 1016.02 1016.14 1016.30 1016.46 1016.62 1016.78 1016.98 1017.06 1017.10 1017.26 1017.26 1017.34 1017.18 1017.10 1017.06 1017.06 1017.06 1017.02 1017.18 1017.26 1017.38 1017.50 1017.46 1017.42 1017.50 1017.42 1017.14 1017.10 1017.10 1017.26 1017.30 1017.54 1017.70 1018.10 1018.50 1019.58 1019.98 1019.54 1019.22 1019.26 1019.50 1019.98 1020.26 1020.34 1020.42
1012.30 1012.70 1012.98 1012.98 1012.98 1012.86 1013.10 1013.50 1013.78 1014.46 1014.70 1014.58 1015.18 1015.46 1015.38 1015.54 1015.90 1016.10 1016.22 1016.34 1016.42 1016.70 1016.82 1016.94 1017.02 1017.02 1017.06 1017.26 1017.10 1016.98 1017.02 1017.06 1017.02 1016.98 1016.94 1017.02 1016.98 1017.26 1017.34 1017.26 1017.30 1017.34 1017.34 1017.30 1017.22 1017.22 1017.26 1017.30 1017.50 1017.74 1018.70 1020.02 1019.70 1019.86 1019.46 1019.10 1019.38 1019.70 1019.90 1020.06 1020.26 1020.46
1012.86 1013.14 1013.34 1013.42 1013.14 1013.10 1013.30 1013.70 1014.10 1014.58 1014.70 1014.78 1015.34 1015.38 1015.30 1015.50 1015.86 1016.22 1016.38 1016.34 1016.34 1016.50 1016.78 1017.02 1017.14 1017.06 1017.18 1017.38 1017.30 1017.02 1017.06 1017.06 1017.02 1016.86 1016.90 1017.06 1016.86 1017.02 1017.22 1017.26 1017.34 1017.50 1017.54 1017.58 1017.54 1017.30 1017.30 1017.54 1017.70 1018.06 1019.30 1019.82 1019.58 1019.50 1019.22 1019.54 1019.70 1019.70 1019.66 1019.90 1020.26 1020.50
1013.02 1013.34 1013.46 1013.46 1013.34 1013.42 1013.50 1013.82 1014.18 1014.50 1014.82 1015.06 1015.14 1015.26 1015.26 1015.38 1015.70 1016.02 1016.18 1016.10 1016.18 1016.22 1016.38 1016.82 1017.22 1017.22 1017.30 1017.46 1017.54 1017.18 1017.18 1017.06 1017.14 1017.06 1016.98 1017.06 1016.94 1017.14 1017.22 1017.42 1017.54 1017.74 1017.74 1017.62 1017.74 1017.42 1017.54 1017.90 1018.02 1018.50 1019.66 1019.70 1019.46 1019.26 1019.46 1019.78 1019.66 1019.66 1019.70 1019.94 1020.34 1020.58
1013.30 1013.34 1013.38 1013.18 1013.14 1013.46 1013.62 1013.74 1013.86 1014.38 1014.78 1015.06 1015.14 1015.22 1015.38 1015.42 1015.70 1015.94 1015.90 1015.90 1016.22 1016.34 1016.54 1016.78 1017.18 1017.06 1017.14 1017.46 1017.50 1017.22 1017.14 1017.30 1017.34 1017.18 1017.06 1017.06 1017.18 1017.14 1017.22 1017.34 1017.46 1017.54 1017.58 1017.66 1017.86 1017.82 1017.90 1018.22 1018.46 1019.26 1019.42 1019.70 1019.62 1019.42 1019.70 1019.98 1019.86 1019.94 1020.14 1020.02 1020.30 1020.66
1013.26 1013.22 1012.82 1012.78 1013.18 1013.58 1013.66 1013.62 1013.74 1014.62 1014.94 1015.10 1015.18 1015.18 1015.42 1015.50 1015.74 1015.94 1015.94 1015.82 1016.10 1016.38 1016.86 1017.18 1017.38 1017.26 1017.34 1017.50 1017.14 1017.14 1017.26 1017.30 1017.38 1017.30 1017.26 1017.26 1017.30 1017.26 1017.30 1017.50 1017.62 1017.54 1017.74 1017.86 1018.02 1018.14 1018.02 1018.18 1018.86 1019.50 1019.74 1019.82 1019.82 1019.70 1019.74 1020.02 1020.06 1020.10 1020.30 1020.30 1020.50 1020.78
1012.66 1012.34 1012.26 1012.74 1013.38 1013.74 1013.82 1013.66 1013.62 1014.58 1014.86 1014.98 1014.98 1015.06 1015.22 1015.34 1015.54 1015.86 1015.94 1015.78 1015.86 1016.18 1016.74 1017.06 1017.10 1017.30 1017.02 1016.78 1016.98 1017.14 1017.22 1017.26 1017.14 1017.14 1017.22 1017.26 1017.38 1017.34 1017.50 1017.62 1017.74 1017.78 1017.94 1017.98 1018.18 1018.30 1018.42 1018.58 1019.62 1019.82 1019.94 1020.02 1019.90 1019.98 1019.98 1020.10 1020.18 1020.30 1020.42 1020.58 1020.70 1020.94
1011.70 1011.90 1012.34 1012.90 1013.34 1013.70 1013.90 1013.70 1013.58 1014.22 1014.70 1014.82 1014.90 1014.98 1015.14 1015.46 1015.78 1015.82 1015.90 1016.06 1016.26 1016.58 1017.10 1017.74 1017.74 1017.46 1017.06 1017.38 1017.42 1017.38 1017.26 1017.22 1017.06 1017.10 1017.26 1017.26 1017.34 1017.42 1017.50 1017.70 1017.70 1017.94 1017.98 1018.02 1018.14 1018.26 1018.50 1019.34 1020.26 1020.46 1020.30 1020.26 1020.22 1019.98 1020.18 1020.34 1020.22 1020.38 1020.62 1020.74 1020.90 1021.10
1011.62 1011.82 1012.18 1012.58 1013.14 1013.46 1013.78 1013.74 1013.70 1014.30 1014.70 1014.78 1014.86 1015.02 1015.22 1015.62 1015.90 1015.98 1016.14 1016.26 1016.34 1016.82 1016.74 1017.46 1017.42 1016.90 1016.98 1017.42 1017.90 1017.90 1017.74 1017.18 1017.14 1017.18 1017.22 1017.30 1017.38 1017.66 1017.70 1017.86 1017.82 1017.98 1018.22 1018.30 1018.26 1018.50 1018.66 1019.94 1020.42 1020.38 1020.26 1020.74 1020.50 1020.30 1020.26 1020.34 1020.50 1020.66 1020.74 1020.82 1021.10 1021.30
1011.82 1011.90 1012.02 1012.30 1012.74 1013.18 1013.74 1014.22 1014.14 1014.46 1014.62 1014.74 1014.86 1014.94 1015.14 1015.50 1015.78 1015.94 1016.06 1016.26 1016.34 1016.42 1016.58 1016.54 1016.62 1016.70 1016.98 1017.26 1017.58 1017.94 1018.26 1017.98 1017.34 1017.46 1017.54 1017.46 1017.58 1017.62 1017.86 1018.10 1018.14 1018.06 1018.02 1018.58 1018.62 1019.06 1019.18 1020.10 1021.26 1021.06 1021.18 1021.18 1020.86 1020.66 1020.30 1020.86 1020.94 1020.86 1020.78 1020.94 1021.26 1021.50
1011.70 1011.90 1012.06 1012.34 1012.62 1013.02 1013.66 1014.70 1014.58 1014.42 1014.66 1014.90 1014.86 1014.74 1014.90 1015.26 1015.62 1015.78 1016.18 1016.22 1016.34 1016.46 1016.58 1016.54 1016.54 1016.70 1016.94 1017.14 1017.42 1017.74 1017.90 1018.22 1017.58 1017.54 1017.62 1017.62 1018.02 1017.90 1017.90 1018.06 1018.34 1018.18 1018.26 1018.62 1018.94 1019.30 1019.78 1020.02 1020.58 1021.02 1020.94 1021.02 1021.30 1021.14 1020.66 1020.86 1021.18 1021.10 1020.98 1021.02 1021.26 1021.58
1011.90 1012.26 1012.54 1012.66 1012.86 1013.18 1013.90 1014.94 1015.14 1015.14 1015.26 1015.10 1015.06 1014.86 1014.98 1015.18 1015.14 1015.46 1015.86 1016.02 1016.42 1016.62 1016.58 1016.54 1016.50 1016.54 1016.82 1017.22 1017.38 1017.66 1017.78 1017.78 1017.74 1017.78 1017.90 1017.98 1018.06 1018.06 1018.14 1018.14 1018.34 1018.50 1018.42 1018.66 1018.94 1019.38 1019.86 1020.14 1020.46 1020.66 1020.90 1021.38 1021.10 1021.02 1021.10 1020.78 1021.06 1021.10 1021.26 1021.14 1021.30 1021.46
1012.18 1012.46 1012.78 1013.02 1013.26 1013.66 1014.10 1015.14 1015.54 1015.90 1015.62 1015.26 1015.02 1015.02 1015.10 1014.94 1014.90 1015.38 1015.70 1015.90 1016.42 1016.74 1016.70 1016.74 1016.66 1016.70 1016.86 1017.26 1017.50 1017.66 1017.66 1017.62 1017.78 1017.94 1018.18 1018.22 1018.30 1018.30 1018.46 1018.42 1018.42 1018.42 1018.82 1018.86 1019.10 1019.38 1019.78 1020.02 1020.42 1020.54 1021.14 1021.18 1020.82 1020.98 1021.54 1021.66 1021.34 1021.10 1021.22 1021.18 1021.38 1021.54
1012.42 1012.62 1013.06 1013.26 1013.54 1013.82 1014.02 1014.42 1014.90 1015.46 1015.46 1015.18 1015.22 1015.34 1015.34 1014.90 1014.90 1015.34 1015.50 1015.82 1016.42 1016.66 1016.54 1016.70 1016.74 1016.82 1016.98 1017.22 1017.62 1017.62 1017.70 1017.66 1017.66 1017.90 1018.22 1018.34 1018.30 1018.42 1018.34 1018.42 1018.46 1018.62 1018.94 1019.26 1019.34 1019.34 1019.74 1019.74 1020.10 1020.86 1021.02 1021.02 1021.06 1021.10 1021.26 1021.18 1021.42 1021.34 1021.22 1021.26 1021.26 1021.50
1013.06 1013.54 1013.50 1013.62 1013.62 1013.54 1013.38 1013.38 1013.78 1014.26 1014.86 1015.26 1015.54 1015.74 1015.42 1015.02 1015.22 1015.26 1015.46 1015.78 1016.06 1016.30 1016.30 1016.50 1016.74 1016.86 1016.98 1017.18 1017.54 1017.62 1017.66 1017.70 1017.62 1017.82 1017.98 1018.10 1018.34 1018.50 1018.50 1018.58 1018.58 1018.74 1018.70 1019.06 1019.26 1019.34 1019.66 1019.74 1020.66 1021.18 1021.50 1021.62 1021.46 1021.26 1021.50 1021.22 1021.54 1021.74 1021.66 1021.62 1021.54 1021.66
1014.02 1014.18 1014.34 1014.42 1013.62 1013.30 1013.26 1013.58 1014.10 1014.82 1015.26 1015.26 1015.42 1015.58 1015.02 1015.02 1015.18 1015.46 1015.66 1015.90 1016.06 1016.46 1016.34 1016.54 1016.62 1016.86 1017.18 1017.22 1017.26 1017.46 1017.58 1017.42 1017.66 1017.86 1018.18 1018.66 1018.66 1018.50 1018.62 1018.58 1018.54 1018.70 1018.98 1018.74 1019.22 1019.58 1019.82 1019.46 1020.58 1020.74 1020.74 1021.18 1021.86 1022.06 1021.94 1021.70 1021.46 1021.66 1021.66 1021.54 1021.62 1021.82
1014.02 1013.66 1013.02 1012.50 1013.02 1013.34 1014.10 1014.26 1013.98 1014.02 1014.70 1014.50 1014.86 1015.22 1014.98 1015.02 1015.34 1015.58 1015.98 1016.18 1016.14 1016.22 1016.42 1016.62 1016.66 1016.86 1017.10 1017.10 1017.18 1017.26 1017.18 1017.34 1017.86 1017.90 1018.18 1018.90 1019.58 1019.06 1018.94 1018.82 1018.66 1018.70 1018.82 1019.42 1019.30 1019.62 1019.26 1019.38 1019.74 1020.42 1021.62 1021.46 1021.62 1021.62 1022.66 1022.38 1022.30 1022.22 1021.82 1021.90 1021.82 1021.98
1012.66 1012.18 1011.86 1012.50 1013.18 1013.66 1013.82 1013.50 1013.46 1013.74 1014.10 1014.34 1014.42 1014.66 1015.06 1015.50 1015.66 1015.82 1015.98 1016.22 1016.50 1016.34 1016.42 1016.62 1016.70 1016.90 1017.02 1017.06 1017.02 1017.02 1017.18 1017.34 1017.46 1017.70 1017.82 1018.18 1018.38 1018.38 1018.50 1018.22 1018.34 1018.82 1018.70 1019.06 1019.34 1019.46 1019.54 1019.34 1019.50 1019.38 1020.30 1021.34 1021.78 1021.98 1021.94 1022.02 1022.10 1022.62 1022.18 1022.14 1022.14 1022.10
1012.18 1012.18 1012.38 1012.90 1013.06 1013.18 1013.42 1013.74 1014.14 1014.46 1014.94 1014.94 1015.18 1015.10 1015.42 1015.66 1015.82 1016.02 1016.14 1016.02 1016.22 1016.30 1016.38 1016.54 1016.70 1016.86 1016.82 1016.86 1016.98 1017.02 1017.18 1017.50 1017.62 1017.82 1017.70 1017.90 1017.94 1017.94 1018.02 1018.10 1018.10 1018.50 1018.70 1018.82 1019.18 1019.38 1019.90 1019.54 1019.42 1019.50 1019.58 1019.74 1020.10 1020.86 1021.58 1021.50 1021.50 1023.30 1022.22 1022.18 1022.30 1022.18
1012.18 1012.38 1012.50 1012.78 1012.82 1013.06 1013.34 1013.58 1014.06 1014.18 1014.34 1014.62 1014.86 1014.82 1014.78 1014.90 1015.18 1015.46 1015.70 1016.10 1016.22 1016.26 1016.26 1016.38 1016.66 1016.90 1016.82 1016.74 1016.82 1016.82 1016.98 1017.18 1017.38 1017.54 1017.62 1017.82 1018.10 1018.10 1018.06 1018.06 1018.10 1018.38 1018.58 1018.70 1018.78 1019.50 1019.78 1019.90 1019.70 1019.58 1019.50 1019.58 1019.78 1019.94 1019.94 1020.94 1022.10 1022.26 1023.10 1022.86 1022.62 1022.54
1011.74 1011.86 1011.86 1012.18 1012.42 1012.46 1012.86 1013.26 1013.86 1014.06 1014.06 1014.14 1014.30 1014.66 1014.70 1014.86 1014.82 1015.18 1015.66 1015.98 1016.14 1016.30 1016.30 1016.50 1016.78 1016.86 1016.74 1016.66 1016.78 1016.86 1016.98 1016.98 1017.22 1017.34 1017.54 1017.74 1017.94 1017.94 1018.10 1018.06 1018.18 1018.34 1018.50 1018.66 1018.82 1019.26 1019.58 1019.50 1019.86 1020.06 1019.62 1019.90 1019.98 1019.94 1019.94 1020.10 1020.46 1021.14 1021.90 1023.06 1023.30 1022.78
1010.98 1010.90 1010.74 1011.14 1011.62 1012.02 1012.38 1012.86 1013.50 1014.02 1014.34 1014.22 1014.10 1014.30 1014.50 1014.66 1014.90 1015.06 1015.50 1015.78 1016.14 1016.22 1016.38 1016.78 1017.06 1017.30 1016.94 1016.46 1016.62 1016.98 1016.86 1016.98 1017.06 1017.14 1017.34 1017.62 1017.70 1017.86 1017.98 1018.22 1018.42 1018.50 1018.66 1018.78 1018.74 1018.86 1019.10 1019.46 1019.50 1019.90 1019.90 1019.90 1019.94 1020.18 1020.22 1020.34 1020.26 1020.54 1021.50 1022.50 1023.26 1023.26
1010.78 1010.50 1010.18 1009.90 1010.62 1011.58 1012.26 1012.94 1013.50 1013.94 1014.34 1014.54 1014.30 1014.26 1014.34 1014.90 1015.26 1015.50 1015.78 1015.90 1016.02 1016.06 1016.30 1016.74 1016.94 1017.70 1017.46 1016.58 1016.38 1016.58 1016.70 1016.86 1016.98 1017.10 1017.22 1017.50 1017.74 1017.78 1017.90 1018.10 1018.30 1018.46 1018.54 1018.70 1018.62 1018.74 1019.02 1019.18 1019.26 1019.38 1019.42 1019.66 1020.06 1020.30 1020.66 1020.90 1020.74 1020.82 1021.02 1021.26 1022.54 1023.18
1010.58 1010.98 1011.14 1010.78 1010.02 1010.94 1011.74 1012.54 1012.90 1013.26 1013.86 1014.26 1014.26 1014.30 1014.70 1015.14 1015.46 1015.66 1015.86 1016.14 1016.30 1016.34 1016.30 1016.78 1017.14 1017.58 1017.62 1016.78 1016.58 1016.70 1017.06 1017.10 1016.86 1016.94 1017.18 1017.46 1017.66 1017.78 1017.94 1018.06 1018.14 1018.38 1018.46 1018.62 1018.74 1018.74 1018.82 1019.02 1019.10 1019.22 1019.30 1019.50 1019.74 1020.06 1020.46 1020.98 1020.82 1020.74 1020.98 1021.54 1022.10 1022.62
1010.78 1011.06 1011.22 1011.38 1011.06 1010.86 1011.38 1012.18 1012.62 1012.78 1013.42 1013.98 1014.14 1014.34 1014.62 1015.14 1015.30 1015.54 1015.58 1016.02 1016.26 1016.42 1016.50 1016.54 1017.14 1017.26 1016.58 1016.22 1016.46 1016.58 1016.62 1016.66 1016.78 1016.74 1016.90 1017.14 1017.38 1017.58 1017.74 1017.90 1018.06 1018.22 1018.42 1018.46 1018.50 1018.62 1018.74 1018.98 1019.06 1019.10 1019.22 1019.34 1019.58 1019.74 1019.94 1020.26 1020.22 1020.42 1020.74 1021.14 1021.54 1022.26
1011.18 1011.22 1011.34 1011.42 1011.54 1011.30 1011.54 1012.14 1012.70 1013.10 1013.50 1013.82 1014.10 1014.22 1014.42 1014.90 1015.06 1015.34 1015.54 1015.86 1016.06 1016.34 1016.18 1016.42 1016.42 1016.46 1016.30 1016.30 1016.34 1016.54 1016.58 1016.74 1016.82 1016.78 1016.74 1016.74 1016.90 1017.26 1017.54 1017.78 1018.02 1018.26 1018.30 1018.46 1018.54 1018.66 1018.86 1018.94 1018.94 1019.10 1019.26 1019.26 1019.34 1019.42 1019.70 1019.94 1020.06 1020.18 1020.30 1020.62 1021.14 1022.06
1011.50 1011.42 1011.38 1011.54 1011.70 1011.74 1011.86 1012.18 1012.42 1012.94 1013.46 1013.78 1014.06 1014.26 1014.50 1014.78 1014.82 1014.90 1015.10 1015.34 1015.70 1015.82 1016.06 1016.14 1016.22 1016.34 1016.30 1016.34 1016.38 1016.46 1016.54 1016.70 1016.74 1016.82 1016.82 1016.82 1016.90 1017.02 1017.22 1017.54 1017.90 1018.30 1018.42 1018.34 1018.38 1018.62 1018.74 1018.74 1018.86 1018.98 1018.94 1019.26 1019.30 1019.34 1019.50 1019.50 1019.66 1019.94 1020.22 1020.54 1021.18 1021.66
1011.78 1011.66 1011.54 1011.66 1011.82 1011.98 1012.14 1012.30 1012.46 1012.82 1013.30 1013.66 1013.98 1014.18 1014.38 1014.42 1014.58 1014.86 1014.94 1015.02 1015.22 1015.38 1015.70 1015.86 1016.10 1016.22 1016.14 1016.30 1016.38 1016.46 1016.66 1016.82 1016.90 1016.98 1017.02 1017.10 1017.10 1017.22 1017.26 1017.34 1017.74 1018.06 1018.34 1018.38 1018.50 1018.62 1018.70 1018.78 1018.90 1018.98 1019.06 1019.14 1019.26 1019.26 1019.30 1019.46 1019.54 1019.82 1019.94 1020.18 1020.62 1021.18
1012.26 1012.26 1012.06 1012.06 1012.14 1012.14 1012.38 1012.34 1012.50 1012.82 1013.18 1013.46 1013.82 1014.14 1014.38 1014.50 1014.58 1014.74 1014.94 1015.02 1015.22 1015.30 1015.38 1015.62 1015.86 1016.06 1016.14 1016.22 1016.46 1016.66 1016.78 1016.94 1016.98 1017.06 1017.10 1017.14 1017.22 1017.26 1017.30 1017.54 1017.78 1017.90 1018.18 1018.22 1018.54 1018.66 1018.74 1018.74 1018.82 1018.82 1018.98 1019.02 1019.18 1019.30 1019.26 1019.42 1019.46 1019.62 1019.86 1020.02 1020.30 1020.82
1012.38 1012.58 1012.58 1012.38 1012.14 1012.22 1012.34 1012.38 1012.50 1012.74 1013.02 1013.38 1013.82 1014.18 1014.46 1014.62 1014.82 1014.94 1015.06 1015.06 1015.18 1015.10 1015.26 1015.58 1015.86 1015.98 1016.22 1016.34 1016.46 1016.62 1016.86 1016.98 1017.02 1017.02 1017.06 1017.10 1017.14 1017.18 1017.22 1017.54 1017.74 1017.82 1018.02 1018.02 1018.22 1018.54 1018.66 1018.78 1018.86 1018.98 1018.94 1019.02 1019.14 1019.26 1019.34 1019.34 1019.42 1019.58 1019.86 1020.02 1020.18 1020.50
Wind_Speed
7 9 10 11 11 11 11 14 10 11 11 11 11 12 15 15 12 10 10 10 9 7 6 6 7 7 12 9 8 10 12 12 11 10 9 9 8 7 7 7 7 7 7 8 8 7 4 2 2 3 6 9 10 6 5 3 10 9 8 7 7 7
8 7 9 9 9 9 10 11 9 8 7 9 10 11 10 9 11 7 10 7 4 4 4 3 3 7 6 7 9 10 10 11 11 10 8 8 8 8 7 7 6 6 7 8 9 4 3 2 2 3 5 8 6 6 4 5 8 10 10 8 6 8
8 8 7 8 9 10 10 8 9 8 7 8 10 10 8 8 5 6 7 5 2 1 3 3 3 6 6 9 9 11 11 11 10 10 8 6 6 6 7 7 6 6 6 7 5 4 4 3 3 3 4 4 3 2 4 7 9 9 10 7 5 10
8 8 6 7 8 9 8 8 8 7 7 6 7 6 6 5 5 6 4 3 3 2 3 3 7 9 9 6 6 7 10 11 10 10 9 5 4 4 4 6 7 6 4 4 4 4 5 4 3 2 3 4 2 1 4 5 8 9 8 9 7 9
9 8 6 4 7 9 8 8 7 7 7 5 5 4 5 4 5 5 4 3 4 4 3 3 4 3 3 5 4 4 5 5 5 5 9 4 3 4 3 4 3 4 4 6 7 5 5 5 3 3 2 1 2 0 6 6 8 8 8 7 5 8
10 8 7 8 8 9 9 8 5 6 6 6 5 4 3 4 4 4 3 3 4 5 3 4 4 4 3 4 5 5 6 5 5 4 6 4 5 4 3 3 3 4 5 4 4 2 3 5 4 3 2 0 1 4 7 5 8 9 7 5 6 8
11 8 8 8 7 8 7 7 6 5 6 5 7 6 5 4 4 4 4 3 3 5 5 3 4 4 4 5 5 6 5 5 5 5 5 5 5 5 5 5 5 4 5 5 5 3 2 4 4 4 3 2 5 10 9 7 6 7 6 5 5 8
9 10 9 9 8 7 8 7 5 8 5 5 7 5 5 5 5 5 3 2 2 2 4 4 3 4 4 4 6 6 5 5 6 5 5 6 4 4 5 4 6 5 6 5 3 4 4 4 3 4 4 4 14 8 6 3 4 8 6 5 5 7
9 11 7 7 6 7 7 6 6 8 6 5 6 4 5 6 5 3 4 4 4 3 1 3 4 3 3 4 4 4 4 3 3 4 4 5 5 5 6 5 3 1 1 3 4 1 3 3 4 1 9 11 9 7 5 4 6 7 6 6 5 6
7 7 7 3 4 6 6 6 6 9 7 5 5 6 6 6 6 5 4 4 4 4 3 4 2 1 3 3 4 3 3 3 4 2 2 2 0 1 2 5 2 2 1 3 4 2 2 3 4 4 16 9 7 6 5 5 6 6 6 6 5 5
6 7 8 7 6 7 6 6 8 8 7 5 4 4 5 5 5 5 5 5 5 4 5 3 1 2 1 2 5 3 4 1 1 1 2 1 2 2 2 2 2 0 2 2 5 5 5 5 2 6 9 8 5 4 4 5 6 5 5 7 5 4
5 7 6 6 6 6 7 6 6 8 8 8 6 5 5 4 5 4 5 5 5 4 2 2 2 3 2 3 6 3 3 3 0 1 1 2 2 1 2 3 2 1 0 2 2 3 2 2 3 12 6 7 3 3 5 4 4 6 4 6 5 4
10 8 10 9 6 6 7 6 5 7 6 7 7 6 6 5 6 5 5 6 7 7 5 4 5 5 7 10 5 3 3 3 4 3 2 2 3 1 2 3 0 0 2 1 1 1 1 1 8 8 7 5 3 5 5 4 4 5 5 5 5 4
7 11 10 7 7 6 6 4 4 7 6 6 5 6 6 5 5 5 5 4 3 4 4 2 4 8 11 6 4 4 4 4 4 3 2 3 2 2 2 3 3 3 3 2 2 3 1 1 9 4 5 5 4 4 5 5 5 5 4 4 4 4
12 9 7 7 9 8 8 5 3 6 6 6 5 5 5 5 4 2 2 1 2 4 9 8 7 8 4 3 3 1 2 1 2 3 3 2 2 0 1 0 2 1 2 1 2 2 1 8 8 5 2 3 3 6 4 4 5 5 4 4 3 3
10 9 8 9 8 8 10 7 5 5 6 3 5 6 5 6 5 4 3 3 3 3 3 6 5 4 4 2 2 4 1 0 2 2 2 2 2 2 0 1 0 2 1 1 2 3 3 10 10 3 2 1 3 3 4 4 5 5 4 4 3 3
12 12 10 9 8 8 10 7 4 3 2 4 4 5 4 5 5 5 5 4 2 3 4 1 1 3 3 4 6 5 7 8 1 1 1 1 1 2 3 2 2 1 3 3 5 5 4 9 8 4 2 1 2 4 2 3 4 2 2 3 4 4
10 9 6 6 6 6 10 9 3 1 2 2 4 4 4 5 6 5 6 6 5 5 3 3 2 5 3 4 3 4 4 7 3 3 3 3 3 1 3 2 1 2 4 3 3 4 5 6 8 6 3 3 3 4 4 3 3 3 1 2 4 5
10 9 5 5 5 5 8 7 7 3 2 3 3 5 4 5 6 5 5 6 6 4 4 3 3 4 5 4 3 3 2 0 2 2 2 3 2 4 3 2 2 1 4 3 1 4 5 6 6 6 5 4 1 2 6 3 2 5 4 1 4 5
9 8 8 7 6 6 6 7 7 5 4 3 3 3 4 2 4 5 4 6 6 5 5 3 3 4 3 4 3 1 1 2 2 2 2 2 1 1 0 1 1 1 4 1 1 4 5 7 5 7 5 4 3 4 8 5 4 3 4 3 3 5
8 9 7 7 7 6 6 7 10 11 9 7 4 3 2 5 4 4 6 6 8 6 7 5 4 4 3 4 4 2 1 2 2 2 2 1 0 1 0 1 1 0 4 2 1 4 6 5 6 5 2 4 3 3 2 5 6 3 3 3 3 4
4 4 3 3 3 5 6 6 6 7 5 7 9 7 6 4 4 4 5 5 6 6 6 4 4 4 4 3 4 3 2 2 1 1 1 0 2 4 3 1 3 1 2 3 1 5 7 7 2 3 4 4 3 3 4 4 6 4 4 3 4 4
6 5 3 2 6 4 3 3 4 6 2 4 3 4 3 4 5 6 4 5 5 6 6 5 4 4 4 4 3 3 3 2 2 1 2 1 4 3 3 4 2 3 3 1 3 5 3 2 5 4 1 3 3 3 3 3 3 7 3 2 3 4
2 5 8 10 3 3 9 5 0 4 8 5 5 7 6 5 5 5 6 5 1 2 5 5 5 5 5 4 3 4 3 2 3 5 4 7 7 7 7 5 7 3 3 4 3 3 4 3 4 6 3 0 1 2 5 2 3 3 2 3 4 4
11 11 9 4 6 7 4 6 5 5 7 6 3 6 7 6 5 4 4 5 5 3 4 5 5 5 4 5 4 3 3 3 3 3 3 3 6 6 7 5 5 4 1 2 4 3 3 3 3 1 5 3 2 1 1 4 6 4 2 4 5 5
8 6 3 5 6 7 6 4 3 5 5 6 6 5 6 7 6 5 4 3 4 4 4 3 4 3 4 4 5 5 5 6 5 5 2 2 1 0 2 3 3 3 5 2 3 6 4 2 2 3 2 1 0 2 6 6 3 3 2 5 5 5
7 5 5 7 7 7 6 4 4 2 4 6 7 5 5 5 4 4 5 4 2 1 2 3 3 4 4 5 5 5 5 6 5 4 3 2 0 1 1 3 3 2 2 2 3 3 5 4 2 1 2 1 2 1 4 5 3 6 4 2 3 4
9 10 10 10 10 8 7 7 6 4 3 4 5 7 7 6 4 5 6 6 5 2 0 3 1 5 6 7 4 2 2 3 5 5 4 2 2 1 2 3 3 3 2 3 3 5 4 4 4 2 2 3 2 2 2 2 6 3 6 6 4 4
13 13 13 16 12 10 8 6 4 4 4 2 5 7 7 6 5 5 7 3 4 1 1 3 1 6 8 4 6 4 6 4 3 3 4 2 1 3 2 5 3 2 4 2 3 3 2 4 3 4 3 2 3 2 2 2 2 2 4 7 6 6
12 13 12 16 14 12 9 7 1 3 5 5 5 5 6 6 6 5 5 4 3 1 1 3 2 7 5 5 3 4 1 2 3 2 3 3 0 3 3 3 4 3 4 4 2 2 3 3 1 2 1 2 2 4 4 2 1 2 3 3 7 7
11 6 4 7 15 14 12 11 7 5 5 6 6 7 6 6 6 6 7 7 6 3 3 4 5 7 9 6 4 2 5 4 4 4 6 5 3 2 2 2 3 5 5 4 3 3 3 6 2 3 2 2 2 4 3 2 2 2 3 3 7 7
8 8 5 4 7 12 12 11 9 8 7 6 7 6 7 8 7 7 6 6 5 5 5 6 6 7 5 5 6 6 5 4 3 2 5 6 7 5 4 2 2 1 4 4 4 3 2 3 3 3 2 3 3 4 4 3 3 2 4 5 7 7
9 10 7 7 6 10 10 10 9 9 8 8 7 7 6 7 6 6 5 6 5 4 4 6 6 5 4 3 3 3 3 3 2 0 1 2 3 9 6 4 2 1 3 4 3 3 2 3 2 1 4 2 1 2 4 6 5 4 3 6 7 7
10 9 8 7 7 8 9 9 11 11 9 8 7 6 6 6 5 5 5 6 6 6 5 4 4 4 4 4 3 3 3 3 3 2 2 3 3 3 4 6 4 6 1 2 4 3 2 2 2 2 1 4 0 3 2 3 4 5 4 5 7 7
7 8 8 7 6 7 7 8 8 9 9 7 6 5 5 5 5 5 3 4 3 3 5 5 5 4 4 4 3 4 4 4 3 3 3 2 3 3 2 2 4 6 4 3 2 1 3 3 2 2 1 3 1 2 3 3 1 5 3 4 6 7
4 5 6 7 7 8 7 7 8 10 9 8 6 5 3 2 4 4 4 3 2 3 4 5 6 5 3 5 4 4 4 3 3 3 3 3 4 3 3 5 5 3 6 5 3 4 3 1 1 2 2 3 2 3 3 4 2 4 4 3 6 6
4 4 7 7 9 10 8 9 11 10 9 8 8 7 5 4 4 3 3 3 1 3 4 5 4 3 4 4 4 3 4 3 2 3 3 3 3 2 2 6 5 3 4 5 5 7 4 2 1 2 1 3 2 3 4 3 2 4 5 3 3 5
Wind_Direction
142 128 125 135 140 141 139 129 128 135 136 136 135 146 152 145 157 156 155 159 156 158 149 148 159 159 153 149 156 142 152 149 146 150 151 152 151 146 141 130 134 135 136 140 138 134 141 197 229 316 316 316 324 312 275 118 93 94 96 88 92 96
134 130 132 138 138 138 140 138 135 135 134 138 140 145 148 151 151 147 152 149 140 132 140 136 145 158 150 154 147 151 159 156 155 156 162 163 158 152 149 141 141 152 155 150 149 144 150 231 262 261 299 309 311 290 5 43 98 95 93 92 95 108
139 133 135 131 136 138 141 140 141 143 139 146 156 152 150 146 134 144 149 145 136 144 112 119 142 151 159 156 150 155 159 158 159 162 167 172 166 166 156 148 153 163 174 172 181 174 165 161 222 217 273 277 258 294 50 71 81 91 94 99 95 112
140 139 143 145 107 137 144 139 146 151 149 153 158 150 147 140 139 158 138 129 125 126 129 146 155 148 149 145 151 152 157 160 162 166 168 169 170 186 181 159 168 174 197 200 218 209 160 158 176 163 217 247 239 87 74 52 75 92 97 103 107 105
147 146 161 148 133 138 140 145 150 149 147 144 122 117 147 143 146 147 141 156 153 157 149 129 117 123 141 146 155 157 161 168 167 174 179 180 181 180 203 194 180 189 216 207 211 203 162 150 147 167 200 262 12 316 85 72 79 80 83 89 107 114
158 166 162 154 150 146 148 135 122 127 134 127 128 139 130 138 145 134 157 173 158 147 155 148 142 151 162 160 169 174 188 177 186 181 197 193 191 162 206 206 197 199 228 234 239 154 143 139 147 153 183 211 21 56 42 62 79 88 92 98 107 118
163 163 156 153 156 152 136 128 136 119 112 127 136 142 149 146 151 153 171 162 147 146 153 159 148 165 166 181 197 184 201 185 194 198 189 225 181 164 199 202 188 203 226 235 231 144 178 139 159 162 167 152 40 31 39 357 82 100 108 107 113 123
172 164 152 160 163 148 130 135 134 123 104 128 129 140 153 153 146 151 156 124 151 157 148 144 160 160 189 195 209 203 200 204 195 198 181 224 174 184 196 222 186 194 219 231 223 155 174 173 171 163 161 84 76 88 110 185 150 113 112 121 129 127
171 160 147 162 161 132 128 129 125 110 125 152 119 164 148 128 135 136 147 162 166 158 149 158 182 188 162 227 236 208 194 220 193 204 195 231 169 183 199 193 149 225 308 318 310 199 181 162 145 86 61 47 97 123 177 137 87 104 124 130 130 130
151 150 149 156 126 115 115 127 113 115 138 153 154 166 139 136 134 146 151 161 181 172 166 177 182 76 155 223 263 207 218 212 211 199 173 228 19 78 45 39 52 22 250 221 248 224 112 61 69 80 93 125 128 163 163 118 101 124 133 118 117 131
110 146 156 151 138 134 133 117 122 132 133 136 158 144 131 139 135 136 151 167 189 180 174 158 197 122 78 247 259 208 213 109 179 176 190 172 92 104 104 90 73 109 329 342 16 15 43 31 48 93 100 99 134 135 128 113 143 130 116 109 117 126
138 149 155 146 144 129 119 127 142 130 143 145 170 156 144 149 127 139 145 177 163 186 175 147 190 193 157 219 231 191 169 134 147 31 329 73 58 79 145 135 144 179 224 20 46 5 52 100 62 83 97 107 89 126 111 141 126 115 101 105 114 116
161 168 172 174 138 119 121 152 157 103 137 146 161 154 151 163 142 160 164 189 169 171 176 162 189 203 186 216 197 154 152 167 171 172 181 167 154 198 90 107 170 106 111 168 140 164 162 156 86 97 106 116 145 116 117 121 110 99 103 109 109 111
158 183 172 134 122 138 133 144 155 112 144 151 158 153 154 150 135 153 173 172 170 142 110 88 208 234 203 182 152 162 179 186 160 139 135 156 162 176 152 178 169 158 187 173 162 110 22 126 75 77 81 112 112 109 118 130 121 100 107 101 107 130
185 182 161 141 156 148 130 146 170 128 148 173 153 141 140 121 130 127 113 111 160 132 141 193 211 245 54 343 97 298 223 150 132 137 140 213 127 36 93 38 89 192 180 150 127 111 71 74 98 69 347 40 103 108 107 111 110 116 110 112 119 101
173 174 164 166 163 147 133 148 167 156 165 156 134 137 140 138 149 144 161 163 154 130 131 153 233 104 83 87 136 264 179 126 127 145 169 139 119 125 41 48 346 332 159 118 168 102 64 84 79 87 26 331 101 99 95 87 87 75 80 107 118 102
167 168 171 166 159 133 118 127 195 149 134 121 130 129 129 120 142 171 163 157 129 132 135 213 152 90 76 76 56 15 16 310 322 77 349 94 54 92 47 42 357 300 61 20 58 59 61 77 119 116 131 340 46 68 57 46 56 84 95 133 115 97
152 155 148 140 127 118 116 124 160 22 133 134 142 148 150 158 157 167 164 156 147 121 141 189 135 103 105 95 99 113 161 250 355 18 22 35 44 53 132 125 64 9 44 59 57 65 62 83 88 116 145 94 276 155 176 131 125 121 226 119 96 102
145 145 134 117 112 114 109 129 140 189 198 180 198 175 146 193 163 151 152 139 141 129 144 148 139 112 123 120 116 132 180 96 49 19 50 36 26 42 40 55 108 81 57 51 70 75 84 87 97 107 91 56 257 97 118 164 205 135 129 136 114 120
141 139 145 150 134 148 155 156 144 159 188 227 212 135 144 122 127 132 152 144 116 137 167 152 144 131 131 123 129 159 120 108 109 60 37 76 27 54 78 101 81 95 82 28 72 96 101 96 96 88 98 160 185 137 122 193 154 116 122 120 101 85
145 144 150 147 149 152 169 157 167 174 190 174 166 81 203 165 145 117 142 140 147 173 155 161 150 140 142 136 133 170 167 143 143 124 155 65 209 141 81 129 119 129 123 184 122 122 115 112 107 92 124 99 82 84 117 119 111 130 98 66 65 93
75 55 23 46 149 181 183 180 172 161 153 152 150 167 156 180 135 130 135 139 142 154 144 140 146 140 143 150 140 164 162 183 103 161 120 170 228 209 172 167 212 187 177 185 100 105 144 133 65 133 144 122 107 84 104 107 100 90 76 150 127 102
59 75 69 186 241 200 185 44 3 50 22 35 49 123 158 145 133 136 135 136 142 162 154 147 154 157 142 166 166 151 175 181 118 203 142 185 248 230 221 173 221 201 168 147 114 106 164 127 135 160 136 141 145 132 69 68 50 86 113 85 99 102
178 161 189 200 181 48 45 42 72 136 110 165 162 157 157 134 120 126 135 149 92 159 149 150 164 167 168 172 180 178 181 147 163 214 181 170 189 198 191 185 191 211 167 157 140 124 131 139 142 146 122 158 128 135 134 105 100 54 28 100 92 96
173 185 201 145 81 75 155 216 170 129 127 153 137 124 131 131 138 135 126 148 150 178 153 154 168 178 196 166 182 165 174 150 196 224 204 194 190 180 176 177 167 173 163 138 148 129 119 148 144 197 142 151 119 64 79 139 130 111 168 90 83 98
159 174 155 110 130 150 196 187 113 144 140 157 137 146 138 140 144 146 141 127 136 167 163 174 157 179 207 168 181 186 173 168 183 192 195 203 228 272 194 161 140 163 144 115 138 124 121 118 141 145 135 105 16 150 151 164 166 122 93 92 106 95
151 152 152 155 164 161 177 159 165 185 146 162 149 137 119 105 122 127 111 103 84 81 210 175 178 167 219 192 198 199 169 166 165 194 169 178 81 231 192 128 137 77 82 127 131 121 133 147 141 184 151 120 95 5 122 143 113 126 113 79 95 111
160 168 176 167 177 174 164 166 164 183 167 166 139 130 127 136 128 124 111 123 148 138 316 70 0 236 229 185 171 193 162 202 173 167 164 160 185 146 156 106 67 99 95 73 93 123 152 174 150 152 147 133 112 132 108 50 133 137 128 131 115 86
172 181 179 169 168 168 161 155 148 151 156 100 119 127 131 134 124 111 125 122 105 190 195 91 112 272 228 201 172 162 189 159 191 166 130 133 160 150 164 118 123 136 120 127 109 134 129 132 155 150 174 145 130 108 88 22 122 103 131 122 126 128
176 194 191 165 155 155 138 94 136 178 149 131 129 133 134 120 119 110 117 114 106 125 174 115 78 280 271 212 149 154 140 151 135 144 134 145 155 128 128 125 144 144 139 126 124 130 130 75 92 148 108 112 106 103 75 42 297 94 124 125 137 142
175 192 259 192 152 151 137 149 171 188 155 144 153 145 132 122 120 145 147 162 157 185 181 159 176 204 228 164 135 170 115 198 186 190 158 156 142 123 110 149 144 159 141 133 148 143 123 153 164 135 151 117 126 127 136 163 169 154 126 124 124 131
149 161 193 196 162 143 140 152 164 155 146 159 163 155 151 139 156 159 146 133 133 147 177 172 191 206 206 145 147 172 162 169 160 205 142 154 159 150 153 124 93 186 126 157 151 133 147 136 161 153 117 110 118 133 138 137 141 148 139 119 126 127
153 164 172 173 178 150 147 153 159 150 166 157 159 162 149 133 161 149 137 136 144 165 161 171 181 165 123 136 128 127 144 124 122 272 154 139 141 148 148 140 139 92 154 139 132 132 135 141 138 119 120 108 106 119 123 135 179 161 131 129 132 134
147 161 160 173 182 161 156 162 162 157 150 144 147 154 143 150 157 147 145 146 156 162 159 162 140 125 143 143 151 151 135 127 119 84 46 52 60 64 121 149 154 131 149 101 110 126 137 121 99 75 72 112 109 116 95 79 123 132 133 135 135 133
149 158 160 169 187 173 158 160 145 140 132 142 143 144 148 152 143 124 131 111 127 142 144 142 138 141 174 140 119 108 99 102 106 111 107 110 81 105 252 107 102 108 133 96 64 70 121 116 132 137 168 122 148 126 110 113 99 130 127 121 125 133
173 170 174 178 192 185 161 160 144 142 140 138 134 134 134 80 95 114 124 98 142 167 140 131 129 164 143 115 116 113 123 111 124 133 134 129 159 162 187 113 121 146 130 129 153 111 69 109 155 141 158 139 135 115 117 127 175 117 125 118 115 135
199 194 202 206 197 181 167 166 153 146 136 137 142 146 145 124 87 82 104 127 196 123 107 110 122 125 112 131 145 136 107 118 129 129 150 157 126 158 102 116 152 154 115 135 149 127 148 133 64 354 138 150 114 127 131 157 143 119 127 132 126 136